Retour au catalogue

STARLINK-35953

ActifCommunicationsVLEO
NORAD 66637·PAYLOAD·🇺🇸 United States

Lancé Nov 23, 2025 depuis Vandenberg Space Force Base

Loading…

Prochains Passages (prochaines 24 heures)

TLE

FraisSource: CelesTrak SupGP

Époque: Sep 15, 2026, 03:19 UTC

1 66637C 25271W   26258.13868056  .00066088  00000+0  19519-2 0  2587
2 66637  53.1595 335.0890 0001112  88.3560 171.4964 15.34368282    16

Suivez STARLINK-35953 en temps réel avec AllMySat

Download on the App Store